QPF
0.00 0.00 0.00 0.00 0.00 0.00 0.00 0.00 0.00 0.00 0.00 0.00 0.00 0.00 0.00 0.00 0.00 0.00 0.00 0.00 0.00 0.00 0.00 0.00 0.00 0.00 0.00 0.00 0.00 0.01 0.01 0.01 0.02 0.02 0.02 0.01 0.01 0.00 0.00 0.00 0.00 0.01 0.00 0.00 0.01 0.01 0.01 0.01 0.01 0.01 0.02 0.03 0.04 0.03 0.01 0.01 0.01 0.01 0.01 0.01 0.01 0.01 0.01 0.01 0.01 0.01 0.01 0.01 0.01
0.00 0.00 0.00 0.00 0.00 0.00 0.00 0.00 0.00 0.00 0.00 0.00 0.00 0.00 0.00 0.00 0.00 0.00 0.00 0.00 0.00 0.00 0.00 0.00 0.00 0.00 0.00 0.00 0.00 0.00 0.00 0.00 0.01 0.01 0.01 0.01 0.01 0.01 0.00 0.00 0.00 0.00 0.01 0.01 0.01 0.01 0.01 0.01 0.00 0.01 0.02 0.04 0.04 0.03 0.02 0.02 0.01 0.01 0.01 0.01 0.01 0.01 0.01 0.01 0.01 0.01 0.01 0.01 0.01
0.00 0.00 0.00 0.00 0.00 0.00 0.00 0.00 0.00 0.00 0.00 0.00 0.00 0.00 0.00 0.00 0.00 0.00 0.00 0.00 0.00 0.00 0.00 0.00 0.00 0.00 0.00 0.00 0.00 0.00 0.00 0.00 0.00 0.00 0.00 0.00 0.01 0.01 0.00 0.00 0.00 0.00 0.01 0.01 0.01 0.01 0.01 0.01 0.00 0.01 0.01 0.02 0.02 0.02 0.02 0.03 0.04 0.03 0.02 0.01 0.01 0.01 0.01 0.01 0.01 0.01 0.01 0.01 0.01
0.00 0.00 0.00 0.00 0.00 0.00 0.00 0.00 0.00 0.00 0.00 0.00 0.00 0.00 0.00 0.00 0.00 0.00 0.00 0.00 0.00 0.00 0.00 0.00 0.00 0.00 0.00 0.00 0.00 0.00 0.00 0.00 0.00 0.00 0.00 0.00 0.00 0.00 0.01 0.00 0.00 0.00 0.01 0.01 0.01 0.01 0.01 0.01 0.00 0.00 0.01 0.01 0.01 0.01 0.01 0.01 0.03 0.03 0.02 0.01 0.01 0.01 0.01 0.01 0.01 0.01 0.01 0.01 0.01
0.00 0.00 0.00 0.00 0.00 0.00 0.00 0.00 0.00 0.00 0.00 0.00 0.00 0.00 0.00 0.00 0.00 0.00 0.00 0.00 0.00 0.00 0.00 0.00 0.00 0.00 0.00 0.00 0.00 0.00 0.00 0.00 0.00 0.00 0.00 0.00 0.00 0.01 0.01 0.00 0.00 0.00 0.01 0.02 0.03 0.02 0.02 0.01 0.00 0.00 0.00 0.01 0.01 0.00 0.00 0.01 0.02 0.02 0.02 0.01 0.01 0.01 0.01 0.01 0.01 0.01 0.01 0.01 0.01
0.00 0.00 0.00 0.00 0.00 0.00 0.00 0.00 0.00 0.00 0.00 0.00 0.00 0.00 0.00 0.00 0.00 0.00 0.00 0.00 0.00 0.00 0.00 0.00 0.00 0.00 0.00 0.00 0.00 0.00 0.00 0.00 0.00 0.00 0.00 0.00 0.00 0.01 0.01 0.00 0.00 0.01 0.01 0.01 0.03 0.03 0.02 0.01 0.00 0.00 0.01 0.01 0.01 0.00 0.00 0.01 0.02 0.02 0.01 0.01 0.01 0.01 0.01 0.01 0.01 0.01 0.01 0.01 0.01
0.00 0.00 0.00 0.00 0.00 0.00 0.00 0.00 0.00 0.00 0.00 0.00 0.00 0.00 0.00 0.00 0.00 0.00 0.00 0.00 0.00 0.00 0.00 0.00 0.00 0.00 0.00 0.00 0.00 0.00 0.00 0.00 0.00 0.00 0.00 0.00 0.00 0.00 0.01 0.00 0.00 0.01 0.01 0.02 0.03 0.03 0.01 0.01 0.00 0.00 0.01 0.02 0.01 0.01 0.01 0.01 0.01 0.01 0.01 0.01 0.01 0.01 0.01 0.01 0.01 0.01 0.01 0.02 0.02
0.00 0.00 0.00 0.00 0.00 0.00 0.00 0.00 0.00 0.00 0.00 0.00 0.00 0.00 0.00 0.00 0.00 0.00 0.00 0.00 0.00 0.00 0.00 0.00 0.00 0.00 0.00 0.00 0.00 0.00 0.00 0.00 0.00 0.00 0.00 0.00 0.00 0.00 0.01 0.01 0.01 0.01 0.01 0.02 0.03 0.02 0.01 0.01 0.00 0.00 0.01 0.01 0.01 0.01 0.01 0.02 0.01 0.01 0.01 0.01 0.01 0.01 0.01 0.01 0.01 0.01 0.02 0.02 0.02
0.00 0.00 0.00 0.00 0.00 0.00 0.00 0.00 0.00 0.00 0.00 0.00 0.00 0.00 0.00 0.00 0.00 0.00 0.00 0.00 0.00 0.00 0.00 0.00 0.00 0.00 0.00 0.00 0.00 0.00 0.00 0.00 0.00 0.00 0.00 0.00 0.00 0.00 0.01 0.01 0.01 0.01 0.01 0.01 0.02 0.02 0.01 0.00 0.00 0.00 0.01 0.01 0.01 0.01 0.01 0.01 0.01 0.01 0.01 0.01 0.02 0.02 0.01 0.01 0.01 0.01 0.01 0.02 0.01
0.00 0.00 0.00 0.00 0.00 0.00 0.00 0.00 0.00 0.00 0.00 0.00 0.00 0.00 0.00 0.00 0.00 0.00 0.00 0.00 0.00 0.00 0.00 0.00 0.00 0.00 0.00 0.00 0.00 0.00 0.00 0.00 0.00 0.00 0.00 0.00 0.00 0.00 0.00 0.01 0.01 0.01 0.01 0.01 0.02 0.02 0.02 0.00 0.00 0.00 0.01 0.02 0.02 0.01 0.01 0.01 0.01 0.01 0.01 0.01 0.01 0.01 0.01 0.01 0.01 0.01 0.02 0.02 0.02
0.00 0.00 0.00 0.00 0.00 0.00 0.00 0.00 0.00 0.00 0.00 0.00 0.00 0.00 0.00 0.00 0.00 0.00 0.00 0.00 0.00 0.00 0.00 0.00 0.00 0.00 0.00 0.00 0.00 0.00 0.00 0.00 0.00 0.00 0.00 0.00 0.00 0.00 0.00 0.01 0.01 0.01 0.01 0.01 0.02 0.02 0.02 0.00 0.00 0.00 0.01 0.02 0.03 0.02 0.01 0.01 0.01 0.01 0.01 0.01 0.01 0.01 0.01 0.02 0.01 0.02 0.02 0.02 0.02
0.00 0.00 0.00 0.00 0.00 0.00 0.00 0.00 0.00 0.00 0.00 0.00 0.00 0.00 0.00 0.00 0.00 0.00 0.00 0.00 0.00 0.00 0.00 0.00 0.00 0.00 0.00 0.00 0.00 0.00 0.00 0.00 0.00 0.00 0.00 0.00 0.00 0.00 0.00 0.00 0.01 0.01 0.01 0.01 0.01 0.02 0.02 0.01 0.00 0.00 0.01 0.01 0.04 0.03 0.02 0.01 0.01 0.01 0.01 0.01 0.01 0.01 0.01 0.01 0.02 0.02 0.02 0.02 0.01
0.00 0.00 0.00 0.00 0.00 0.00 0.00 0.00 0.00 0.00 0.00 0.00 0.00 0.00 0.00 0.00 0.00 0.00 0.00 0.00 0.00 0.00 0.00 0.00 0.00 0.00 0.00 0.00 0.00 0.00 0.00 0.00 0.00 0.00 0.00 0.00 0.00 0.00 0.00 0.00 0.01 0.01 0.01 0.01 0.01 0.02 0.02 0.01 0.01 0.00 0.01 0.01 0.04 0.04 0.02 0.01 0.01 0.01 0.01 0.01 0.01 0.01 0.01 0.01 0.02 0.02 0.02 0.01 0.01
0.00 0.00 0.00 0.00 0.00 0.00 0.00 0.00 0.00 0.01 0.00 0.00 0.00 0.00 0.00 0.00 0.00 0.00 0.00 0.00 0.00 0.00 0.00 0.00 0.00 0.00 0.00 0.00 0.00 0.00 0.00 0.00 0.00 0.00 0.00 0.00 0.00 0.01 0.00 0.01 0.01 0.01 0.01 0.01 0.01 0.02 0.02 0.01 0.01 0.01 0.01 0.01 0.03 0.04 0.02 0.01 0.01 0.01 0.01 0.01 0.01 0.01 0.01 0.01 0.01 0.01 0.01 0.01 0.01
0.00 0.00 0.00 0.00 0.00 0.00 0.00 0.01 0.01 0.01 0.01 0.00 0.00 0.00 0.00 0.00 0.00 0.00 0.00 0.00 0.00 0.00 0.00 0.00 0.00 0.00 0.00 0.00 0.00 0.00 0.00 0.00 0.00 0.00 0.00 0.00 0.00 0.00 0.00 0.00 0.01 0.01 0.01 0.01 0.01 0.02 0.02 0.01 0.01 0.01 0.01 0.01 0.03 0.03 0.02 0.01 0.01 0.01 0.01 0.01 0.01 0.01 0.01 0.01 0.01 0.01 0.01 0.01 0.01
0.00 0.00 0.00 0.00 0.00 0.00 0.00 0.00 0.01 0.01 0.01 0.01 0.00 0.00 0.00 0.00 0.00 0.00 0.00 0.00 0.00 0.00 0.00 0.00 0.00 0.00 0.00 0.00 0.00 0.00 0.00 0.00 0.00 0.00 0.01 0.01 0.00 0.00 0.00 0.00 0.01 0.01 0.01 0.01 0.01 0.01 0.01 0.01 0.00 0.00 0.01 0.02 0.03 0.03 0.02 0.01 0.01 0.01 0.01 0.01 0.01 0.01 0.01 0.01 0.01 0.02 0.02 0.02 0.01
0.00 0.00 0.00 0.00 0.00 0.00 0.00 0.01 0.01 0.01 0.01 0.01 0.01 0.00 0.00 0.00 0.00 0.00 0.00 0.00 0.00 0.00 0.00 0.00 0.01 0.00 0.00 0.00 0.00 0.00 0.00 0.00 0.00 0.01 0.01 0.01 0.01 0.00 0.01 0.01 0.01 0.01 0.01 0.01 0.01 0.01 0.01 0.01 0.00 0.00 0.01 0.02 0.03 0.04 0.03 0.01 0.01 0.01 0.01 0.01 0.01 0.01 0.01 0.01 0.01 0.01 0.01 0.01 0.01
0.00 0.00 0.00 0.00 0.00 0.00 0.00 0.01 0.01 0.01 0.01 0.01 0.01 0.01 0.00 0.00 0.00 0.00 0.00 0.00 0.00 0.00 0.00 0.00 0.00 0.00 0.00 0.01 0.01 0.00 0.00 0.01 0.01 0.01 0.01 0.01 0.01 0.01 0.01 0.01 0.01 0.01 0.01 0.01 0.01 0.01 0.01 0.01 0.00 0.01 0.01 0.02 0.02 0.04 0.04 0.02 0.01 0.01 0.01 0.01 0.01 0.01 0.01 0.01 0.02 0.02 0.02 0.02 0.01
0.00 0.00 0.00 0.00 0.00 0.00 0.00 0.01 0.01 0.01 0.01 0.01 0.01 0.01 0.01 0.00 0.00 0.00 0.00 0.00 0.00 0.00 0.00 0.00 0.00 0.00 0.00 0.00 0.01 0.01 0.01 0.01 0.01 0.01 0.01 0.01 0.01 0.01 0.01 0.01 0.01 0.01 0.01 0.01 0.01 0.01 0.01 0.01 0.00 0.01 0.01 0.02 0.01 0.02 0.04 0.02 0.02 0.01 0.01 0.01 0.01 0.01 0.01 0.01 0.01 0.01 0.02 0.02 0.01
0.00 0.00 0.00 0.00 0.00 0.00 0.00 0.00 0.01 0.01 0.01 0.01 0.01 0.01 0.01 0.00 0.00 0.00 0.00 0.00 0.00 0.00 0.00 0.00 0.00 0.01 0.01 0.01 0.01 0.01 0.01 0.01 0.01 0.01 0.01 0.01 0.01 0.01 0.01 0.01 0.01 0.02 0.02 0.01 0.01 0.01 0.01 0.01 0.01 0.01 0.02 0.03 0.02 0.02 0.03 0.03 0.02 0.01 0.01 0.01 0.01 0.01 0.01 0.01 0.01 0.01 0.01 0.01 0.01
0.00 0.00 0.00 0.00 0.00 0.00 0.00 0.00 0.00 0.01 0.01 0.01 0.01 0.01 0.01 0.01 0.00 0.00 0.00 0.00 0.00 0.00 0.00 0.00 0.00 0.01 0.01 0.01 0.01 0.01 0.01 0.01 0.01 0.01 0.01 0.01 0.01 0.01 0.01 0.01 0.01 0.02 0.02 0.02 0.01 0.01 0.01 0.01 0.01 0.01 0.02 0.03 0.03 0.02 0.02 0.03 0.02 0.02 0.01 0.01 0.01 0.01 0.01 0.01 0.01 0.01 0.01 0.01 0.01
0.00 0.00 0.00 0.00 0.00 0.00 0.00 0.00 0.00 0.00 0.01 0.01 0.01 0.01 0.01 0.01 0.01 0.00 0.00 0.00 0.00 0.00 0.00 0.00 0.00 0.00 0.01 0.01 0.01 0.01 0.01 0.01 0.01 0.01 0.01 0.01 0.01 0.01 0.01 0.01 0.01 0.02 0.02 0.02 0.02 0.01 0.01 0.01 0.01 0.01 0.02 0.03 0.04 0.03 0.02 0.03 0.02 0.02 0.01 0.01 0.01 0.01 0.01 0.01 0.01 0.01 0.01 0.01 0.01
0.00 0.00 0.00 0.00 0.00 0.00 0.00 0.00 0.00 0.00 0.00 0.01 0.01 0.01 0.01 0.01 0.01 0.01 0.00 0.00 0.00 0.00 0.00 0.00 0.00 0.00 0.01 0.01 0.01 0.01 0.01 0.01 0.01 0.01 0.01 0.01 0.01 0.01 0.01 0.01 0.01 0.02 0.02 0.02 0.02 0.02 0.01 0.01 0.01 0.01 0.01 0.02 0.05 0.04 0.02 0.02 0.02 0.01 0.01 0.01 0.02 0.02 0.02 0.01 0.01 0.01 0.01 0.01 0.01
0.00 0.00 0.00 0.00 0.00 0.00 0.00 0.00 0.00 0.00 0.00 0.00 0.01 0.01 0.01 0.01 0.01 0.01 0.01 0.00 0.00 0.00 0.00 0.00 0.00 0.00 0.00 0.01 0.01 0.01 0.01 0.01 0.01 0.01 0.01 0.01 0.01 0.01 0.01 0.01 0.01 0.01 0.02 0.02 0.02 0.02 0.01 0.01 0.01 0.01 0.01 0.02 0.05 0.05 0.03 0.01 0.01 0.01 0.01 0.01 0.02 0.02 0.01 0.01 0.01 0.01 0.01 0.01 0.01
0.00 0.00 0.00 0.00 0.00 0.00 0.00 0.00 0.00 0.00 0.00 0.00 0.00 0.01 0.01 0.01 0.01 0.01 0.01 0.00 0.00 0.00 0.00 0.00 0.00 0.00 0.00 0.01 0.01 0.01 0.01 0.01 0.01 0.01 0.01 0.01 0.01 0.01 0.00 0.01 0.01 0.01 0.01 0.01 0.02 0.01 0.01 0.00 0.01 0.01 0.01 0.01 0.04 0.05 0.04 0.02 0.01 0.01 0.01 0.01 0.01 0.01 0.01 0.01 0.01 0.01 0.01 0.01 0.01
0.00 0.00 0.00 0.00 0.00 0.00 0.00 0.00 0.00 0.00 0.00 0.00 0.00 0.01 0.01 0.01 0.01 0.01 0.01 0.01 0.00 0.00 0.00 0.00 0.00 0.00 0.00 0.00 0.01 0.01 0.01 0.01 0.01 0.01 0.01 0.01 0.01 0.00 0.01 0.00 0.01 0.01 0.01 0.01 0.01 0.01 0.01 0.00 0.00 0.01 0.01 0.01 0.04 0.05 0.04 0.02 0.01 0.01 0.01 0.01 0.01 0.01 0.01 0.01 0.01 0.01 0.01 0.01 0.01
0.00 0.00 0.00 0.00 0.00 0.00 0.00 0.00 0.00 0.00 0.00 0.00 0.00 0.01 0.01 0.01 0.01 0.01 0.01 0.01 0.01 0.00 0.00 0.00 0.00 0.00 0.00 0.00 0.01 0.01 0.01 0.01 0.01 0.01 0.01 0.01 0.01 0.01 0.01 0.00 0.00 0.01 0.01 0.01 0.01 0.01 0.01 0.01 0.01 0.01 0.01 0.01 0.03 0.04 0.04 0.02 0.01 0.01 0.01 0.01 0.01 0.01 0.01 0.01 0.01 0.01 0.01 0.01 0.01
0.00 0.00 0.00 0.00 0.00 0.00 0.00 0.00 0.00 0.00 0.00 0.00 0.00 0.01 0.01 0.01 0.01 0.01 0.01 0.01 0.01 0.00 0.00 0.00 0.00 0.00 0.00 0.00 0.01 0.01 0.01 0.01 0.01 0.01 0.01 0.01 0.01 0.01 0.01 0.01 0.00 0.00 0.00 0.00 0.01 0.01 0.01 0.01 0.01 0.01 0.01 0.01 0.01 0.02 0.03 0.02 0.01 0.01 0.01 0.01 0.01 0.01 0.01 0.01 0.01 0.01 0.01 0.01 0.01
0.00 0.00 0.00 0.00 0.00 0.00 0.00 0.00 0.00 0.00 0.00 0.00 0.00 0.01 0.01 0.01 0.01 0.01 0.01 0.01 0.01 0.01 0.00 0.00 0.00 0.00 0.00 0.01 0.01 0.01 0.01 0.00 0.00 0.01 0.01 0.01 0.01 0.01 0.00 0.01 0.00 0.00 0.00 0.00 0.00 0.01 0.01 0.01 0.01 0.01 0.01 0.01 0.01 0.02 0.02 0.02 0.01 0.01 0.01 0.01 0.01 0.00 0.01 0.00 0.00 0.01 0.01 0.01 0.01
0.00 0.00 0.00 0.00 0.00 0.00 0.00 0.00 0.00 0.00 0.00 0.00 0.00 0.00 0.01 0.01 0.01 0.01 0.01 0.02 0.01 0.01 0.01 0.01 0.00 0.00 0.00 0.00 0.00 0.01 0.01 0.01 0.00 0.00 0.01 0.01 0.01 0.01 0.01 0.01 0.00 0.00 0.00 0.00 0.00 0.01 0.01 0.01 0.01 0.01 0.02 0.02 0.01 0.02 0.02 0.02 0.01 0.01 0.01 0.00 0.00 0.00 0.00 0.00 0.00 0.00 0.01 0.01 0.01
0.00 0.00 0.00 0.00 0.00 0.00 0.00 0.00 0.00 0.00 0.00 0.00 0.00 0.00 0.01 0.01 0.01 0.01 0.01 0.02 0.02 0.01 0.01 0.01 0.01 0.00 0.00 0.00 0.00 0.00 0.00 0.00 0.00 0.00 0.01 0.01 0.00 0.00 0.00 0.00 0.00 0.00 0.00 0.00 0.01 0.01 0.01 0.01 0.01 0.01 0.02 0.03 0.02 0.01 0.01 0.01 0.01 0.01 0.00 0.00 0.00 0.00 0.00 0.00 0.00 0.00 0.01 0.01 0.01
0.00 0.00 0.00 0.00 0.00 0.00 0.00 0.00 0.00 0.00 0.00 0.00 0.00 0.00 0.01 0.01 0.01 0.01 0.01 0.01 0.02 0.02 0.02 0.01 0.01 0.01 0.01 0.00 0.00 0.00 0.00 0.00 0.00 0.00 0.00 0.01 0.00 0.00 0.00 0.00 0.00 0.00 0.00 0.00 0.01 0.01 0.01 0.01 0.00 0.01 0.02 0.03 0.02 0.02 0.01 0.01 0.01 0.01 0.01 0.00 0.00 0.00 0.00 0.00 0.00 0.00 0.01 0.01 0.01
0.00 0.00 0.00 0.00 0.00 0.00 0.00 0.00 0.00 0.00 0.00 0.00 0.00 0.00 0.00 0.01 0.01 0.01 0.01 0.02 0.02 0.02 0.02 0.02 0.01 0.01 0.01 0.00 0.00 0.00 0.00 0.00 0.00 0.00 0.00 0.00 0.00 0.00 0.00 0.00 0.00 0.00 0.00 0.00 0.01 0.01 0.01 0.01 0.01 0.01 0.02 0.03 0.02 0.02 0.01 0.01 0.01 0.01 0.00 0.00 0.00 0.00 0.00 0.00 0.00 0.00 0.01 0.01 0.01
0.00 0.00 0.00 0.00 0.00 0.00 0.00 0.00 0.00 0.00 0.00 0.00 0.00 0.00 0.00 0.01 0.01 0.01 0.01 0.02 0.02 0.02 0.02 0.02 0.02 0.01 0.01 0.01 0.00 0.00 0.00 0.00 0.00 0.00 0.00 0.00 0.00 0.00 0.00 0.00 0.00 0.00 0.00 0.00 0.01 0.01 0.01 0.02 0.01 0.01 0.02 0.03 0.03 0.02 0.01 0.01 0.01 0.00 0.00 0.00 0.00 0.00 0.00 0.00 0.00 0.00 0.00 0.01 0.01
0.00 0.00 0.00 0.00 0.00 0.00 0.00 0.00 0.00 0.00 0.00 0.00 0.00 0.00 0.00 0.00 0.01 0.01 0.01 0.02 0.02 0.02 0.02 0.02 0.02 0.01 0.01 0.01 0.00 0.00 0.00 0.00 0.00 0.00 0.00 0.00 0.00 0.00 0.00 0.00 0.00 0.00 0.00 0.01 0.01 0.01 0.02 0.02 0.02 0.02 0.02 0.03 0.03 0.02 0.01 0.01 0.01 0.00 0.00 0.00 0.00 0.00 0.00 0.00 0.00 0.00 0.00 0.00 0.00
0.00 0.00 0.00 0.00 0.00 0.00 0.00 0.00 0.00 0.00 0.00 0.00 0.00 0.00 0.00 0.00 0.01 0.01 0.01 0.01 0.02 0.03 0.03 0.03 0.02 0.02 0.02 0.01 0.01 0.00 0.00 0.00 0.00 0.00 0.00 0.00 0.00 0.00 0.00 0.00 0.00 0.00 0.00 0.01 0.01 0.01 0.02 0.02 0.02 0.01 0.02 0.03 0.03 0.02 0.01 0.01 0.00 0.00 0.00 0.00 0.00 0.00 0.00 0.00 0.00 0.00 0.00 0.00 0.00
0.00 0.00 0.00 0.00 0.00 0.00 0.00 0.00 0.00 0.00 0.00 0.00 0.00 0.00 0.00 0.00 0.01 0.01 0.01 0.01 0.02 0.03 0.03 0.03 0.03 0.02 0.02 0.02 0.01 0.00 0.00 0.00 0.00 0.00 0.00 0.00 0.00 0.00 0.00 0.00 0.00 0.00 0.00 0.01 0.01 0.01 0.01 0.02 0.02 0.02 0.02 0.03 0.03 0.02 0.01 0.00 0.00 0.00 0.00 0.00 0.00 0.00 0.00 0.00 0.00 0.00 0.00 0.00 0.00
0.00 0.00 0.00 0.00 0.00 0.00 0.00 0.00 0.00 0.00 0.00 0.00 0.00 0.00 0.00 0.00 0.01 0.01 0.01 0.01 0.02 0.03 0.04 0.03 0.03 0.03 0.02 0.02 0.01 0.01 0.00 0.00 0.00 0.00 0.00 0.00 0.00 0.00 0.00 0.00 0.00 0.00 0.00 0.01 0.01 0.01 0.02 0.02 0.02 0.02 0.02 0.03 0.02 0.02 0.01 0.00 0.00 0.00 0.00 0.00 0.00 0.00 0.00 0.00 0.00 0.00 0.00 0.00 0.00
0.00 0.00 0.00 0.00 0.00 0.00 0.00 0.00 0.00 0.00 0.00 0.00 0.00 0.00 0.00 0.00 0.01 0.01 0.01 0.01 0.02 0.03 0.04 0.04 0.03 0.03 0.02 0.02 0.01 0.01 0.00 0.00 0.00 0.00 0.00 0.00 0.00 0.00 0.00 0.00 0.00 0.00 0.00 0.00 0.01 0.01 0.02 0.02 0.02 0.02 0.03 0.03 0.02 0.02 0.01 0.00 0.00 0.00 0.00 0.00 0.00 0.00 0.00 0.00 0.00 0.00 0.00 0.00 0.00
0.00 0.00 0.00 0.00 0.00 0.00 0.00 0.00 0.00 0.00 0.00 0.00 0.00 0.00 0.00 0.01 0.01 0.01 0.01 0.01 0.02 0.03 0.03 0.04 0.03 0.03 0.02 0.02 0.02 0.01 0.01 0.00 0.00 0.00 0.00 0.00 0.00 0.00 0.00 0.00 0.00 0.00 0.00 0.00 0.01 0.01 0.02 0.02 0.02 0.03 0.03 0.03 0.02 0.01 0.01 0.00 0.00 0.00 0.00 0.00 0.00 0.00 0.00 0.00 0.00 0.00 0.00 0.00 0.00
0.00 0.00 0.00 0.00 0.00 0.00 0.00 0.00 0.00 0.00 0.00 0.00 0.00 0.00 0.00 0.00 0.01 0.01 0.01 0.01 0.02 0.03 0.03 0.04 0.04 0.03 0.03 0.03 0.02 0.01 0.01 0.00 0.00 0.00 0.00 0.00 0.00 0.00 0.00 0.00 0.00 0.00 0.00 0.00 0.01 0.01 0.02 0.02 0.02 0.03 0.03 0.02 0.02 0.01 0.01 0.00 0.00 0.00 0.00 0.00 0.00 0.00 0.01 0.00 0.00 0.00 0.01 0.01 0.01
MSLP
1017.68 1017.48 1017.28 1017.04 1016.84 1016.64 1016.52 1016.32 1016.16 1016.00 1015.88 1015.76 1015.60 1015.48 1015.36 1015.28 1015.12 1014.92 1014.72 1014.60 1014.44 1014.32 1014.16 1014.00 1013.92 1013.84 1013.72 1013.56 1013.36 1013.16 1013.08 1013.08 1013.08 1013.00 1013.00 1013.00 1013.04 1013.08 1013.08 1013.04 1013.00 1013.00 1012.92 1012.88 1012.84 1012.76 1012.72 1012.68 1012.60 1012.52 1012.44 1012.44 1012.44 1012.44 1012.40 1012.40 1012.40 1012.44 1012.48 1012.56 1012.56 1012.60 1012.64 1012.64 1012.72 1012.72 1012.76 1012.72 1012.72
1017.76 1017.60 1017.36 1017.12 1016.88 1016.72 1016.52 1016.32 1016.16 1016.00 1015.84 1015.72 1015.60 1015.52 1015.44 1015.28 1015.16 1014.96 1014.76 1014.60 1014.48 1014.36 1014.20 1014.04 1013.92 1013.84 1013.76 1013.64 1013.48 1013.28 1013.16 1013.12 1013.12 1013.08 1013.04 1013.08 1013.08 1013.08 1013.08 1013.04 1013.00 1013.00 1012.92 1012.88 1012.84 1012.72 1012.64 1012.60 1012.56 1012.52 1012.44 1012.44 1012.44 1012.36 1012.32 1012.36 1012.40 1012.44 1012.44 1012.56 1012.56 1012.60 1012.64 1012.72 1012.76 1012.76 1012.76 1012.72 1012.72
1017.84 1017.60 1017.40 1017.20 1017.00 1016.80 1016.56 1016.40 1016.16 1016.00 1015.88 1015.72 1015.60 1015.48 1015.40 1015.28 1015.12 1014.96 1014.80 1014.64 1014.48 1014.36 1014.24 1014.08 1013.96 1013.88 1013.76 1013.72 1013.60 1013.44 1013.28 1013.20 1013.16 1013.16 1013.08 1013.08 1013.04 1013.04 1013.04 1013.08 1013.04 1013.00 1012.92 1012.88 1012.80 1012.72 1012.60 1012.60 1012.56 1012.52 1012.44 1012.44 1012.44 1012.44 1012.40 1012.40 1012.40 1012.44 1012.48 1012.56 1012.60 1012.60 1012.68 1012.76 1012.80 1012.76 1012.76 1012.72 1012.72
1017.88 1017.68 1017.44 1017.28 1017.04 1016.88 1016.64 1016.44 1016.20 1016.00 1015.84 1015.68 1015.56 1015.44 1015.36 1015.24 1015.12 1014.96 1014.80 1014.64 1014.48 1014.32 1014.20 1014.12 1014.00 1013.88 1013.72 1013.68 1013.60 1013.52 1013.40 1013.28 1013.20 1013.16 1013.16 1013.12 1013.08 1013.04 1013.04 1013.08 1013.08 1013.00 1012.92 1012.84 1012.76 1012.72 1012.60 1012.56 1012.52 1012.48 1012.44 1012.44 1012.44 1012.40 1012.40 1012.44 1012.44 1012.48 1012.56 1012.60 1012.60 1012.68 1012.72 1012.80 1012.80 1012.76 1012.72 1012.72 1012.76
1017.88 1017.68 1017.52 1017.32 1017.12 1016.88 1016.68 1016.44 1016.24 1016.00 1015.84 1015.68 1015.52 1015.40 1015.28 1015.20 1015.08 1014.96 1014.80 1014.64 1014.48 1014.28 1014.16 1014.08 1013.96 1013.84 1013.72 1013.64 1013.60 1013.56 1013.44 1013.32 1013.24 1013.16 1013.16 1013.16 1013.12 1013.08 1013.04 1013.08 1013.08 1013.00 1012.92 1012.84 1012.72 1012.64 1012.56 1012.56 1012.48 1012.44 1012.44 1012.44 1012.40 1012.40 1012.44 1012.44 1012.44 1012.52 1012.60 1012.68 1012.72 1012.72 1012.76 1012.84 1012.84 1012.80 1012.72 1012.72 1012.76
1017.92 1017.72 1017.56 1017.36 1017.16 1016.92 1016.72 1016.48 1016.28 1016.04 1015.88 1015.68 1015.52 1015.40 1015.28 1015.16 1015.00 1014.88 1014.76 1014.64 1014.48 1014.28 1014.16 1014.00 1013.88 1013.72 1013.64 1013.60 1013.56 1013.48 1013.40 1013.32 1013.28 1013.20 1013.16 1013.12 1013.16 1013.12 1013.12 1013.08 1013.04 1013.00 1012.92 1012.80 1012.72 1012.60 1012.56 1012.52 1012.44 1012.44 1012.44 1012.40 1012.40 1012.40 1012.44 1012.44 1012.44 1012.56 1012.64 1012.72 1012.72 1012.76 1012.84 1012.88 1012.84 1012.80 1012.76 1012.72 1012.72
1017.96 1017.76 1017.60 1017.36 1017.16 1016.96 1016.72 1016.52 1016.28 1016.04 1015.88 1015.68 1015.48 1015.36 1015.20 1015.08 1014.96 1014.84 1014.72 1014.56 1014.44 1014.28 1014.08 1013.92 1013.76 1013.64 1013.60 1013.56 1013.48 1013.44 1013.32 1013.28 1013.24 1013.20 1013.16 1013.12 1013.08 1013.08 1013.08 1013.12 1013.08 1013.00 1012.88 1012.76 1012.68 1012.56 1012.48 1012.48 1012.40 1012.40 1012.40 1012.36 1012.40 1012.40 1012.36 1012.36 1012.44 1012.52 1012.60 1012.68 1012.72 1012.76 1012.84 1012.88 1012.84 1012.80 1012.76 1012.72 1012.72
1017.92 1017.72 1017.56 1017.40 1017.20 1017.00 1016.76 1016.56 1016.28 1016.04 1015.84 1015.64 1015.48 1015.28 1015.12 1015.00 1014.84 1014.72 1014.56 1014.48 1014.32 1014.16 1014.00 1013.88 1013.72 1013.60 1013.48 1013.44 1013.40 1013.32 1013.28 1013.28 1013.20 1013.16 1013.12 1013.12 1013.16 1013.16 1013.12 1013.12 1013.08 1012.96 1012.88 1012.76 1012.68 1012.56 1012.44 1012.44 1012.40 1012.40 1012.40 1012.36 1012.36 1012.36 1012.32 1012.32 1012.44 1012.48 1012.56 1012.60 1012.68 1012.72 1012.76 1012.84 1012.84 1012.80 1012.72 1012.72 1012.72
1017.88 1017.68 1017.48 1017.32 1017.16 1017.00 1016.76 1016.56 1016.32 1016.12 1015.88 1015.68 1015.44 1015.28 1015.08 1014.88 1014.72 1014.60 1014.52 1014.40 1014.28 1014.12 1013.96 1013.84 1013.64 1013.52 1013.44 1013.36 1013.28 1013.24 1013.20 1013.16 1013.16 1013.16 1013.16 1013.16 1013.24 1013.24 1013.24 1013.16 1013.08 1012.96 1012.88 1012.76 1012.64 1012.52 1012.44 1012.44 1012.44 1012.40 1012.36 1012.36 1012.32 1012.28 1012.28 1012.32 1012.44 1012.48 1012.52 1012.56 1012.60 1012.64 1012.72 1012.80 1012.80 1012.76 1012.76 1012.72 1012.72
1017.88 1017.68 1017.44 1017.28 1017.08 1016.92 1016.76 1016.56 1016.32 1016.12 1015.88 1015.68 1015.44 1015.24 1015.04 1014.88 1014.68 1014.56 1014.44 1014.28 1014.20 1014.08 1013.92 1013.80 1013.64 1013.56 1013.44 1013.40 1013.28 1013.20 1013.16 1013.08 1013.16 1013.20 1013.28 1013.28 1013.32 1013.28 1013.24 1013.20 1013.12 1013.00 1012.88 1012.72 1012.64 1012.52 1012.44 1012.44 1012.44 1012.40 1012.36 1012.36 1012.32 1012.28 1012.28 1012.36 1012.44 1012.44 1012.52 1012.56 1012.60 1012.60 1012.68 1012.76 1012.80 1012.80 1012.72 1012.68 1012.72
1017.88 1017.68 1017.48 1017.28 1017.08 1016.88 1016.72 1016.56 1016.36 1016.16 1015.92 1015.72 1015.48 1015.28 1015.12 1014.88 1014.72 1014.52 1014.36 1014.20 1014.12 1014.00 1013.88 1013.72 1013.68 1013.60 1013.48 1013.44 1013.36 1013.28 1013.20 1013.20 1013.16 1013.16 1013.20 1013.28 1013.28 1013.28 1013.20 1013.20 1013.16 1013.00 1012.88 1012.72 1012.64 1012.56 1012.44 1012.44 1012.40 1012.36 1012.36 1012.36 1012.28 1012.28 1012.28 1012.28 1012.36 1012.44 1012.52 1012.60 1012.60 1012.64 1012.64 1012.72 1012.80 1012.80 1012.72 1012.64 1012.72
1017.88 1017.68 1017.44 1017.24 1017.04 1016.88 1016.72 1016.56 1016.40 1016.16 1015.96 1015.72 1015.56 1015.36 1015.16 1014.92 1014.72 1014.52 1014.32 1014.16 1014.04 1013.92 1013.80 1013.68 1013.68 1013.60 1013.56 1013.48 1013.44 1013.36 1013.28 1013.28 1013.24 1013.20 1013.20 1013.24 1013.24 1013.20 1013.20 1013.16 1013.12 1013.00 1012.88 1012.72 1012.64 1012.56 1012.44 1012.44 1012.40 1012.40 1012.36 1012.32 1012.28 1012.24 1012.20 1012.24 1012.28 1012.40 1012.52 1012.60 1012.56 1012.56 1012.64 1012.72 1012.80 1012.76 1012.68 1012.64 1012.72
1017.88 1017.68 1017.44 1017.20 1017.00 1016.84 1016.68 1016.56 1016.40 1016.20 1016.00 1015.80 1015.60 1015.40 1015.16 1014.92 1014.72 1014.52 1014.32 1014.16 1014.00 1013.88 1013.72 1013.64 1013.64 1013.60 1013.60 1013.52 1013.44 1013.40 1013.36 1013.32 1013.28 1013.28 1013.28 1013.24 1013.24 1013.20 1013.16 1013.12 1013.04 1013.00 1012.88 1012.76 1012.68 1012.56 1012.44 1012.40 1012.44 1012.44 1012.36 1012.32 1012.24 1012.20 1012.16 1012.16 1012.24 1012.36 1012.48 1012.56 1012.56 1012.56 1012.64 1012.72 1012.76 1012.72 1012.64 1012.64 1012.72
1017.84 1017.64 1017.44 1017.20 1017.00 1016.80 1016.64 1016.48 1016.36 1016.20 1016.00 1015.84 1015.60 1015.44 1015.20 1014.96 1014.72 1014.52 1014.36 1014.16 1013.96 1013.80 1013.72 1013.64 1013.60 1013.60 1013.52 1013.44 1013.40 1013.36 1013.32 1013.32 1013.28 1013.28 1013.24 1013.24 1013.20 1013.16 1013.16 1013.12 1013.00 1012.92 1012.80 1012.72 1012.64 1012.56 1012.44 1012.44 1012.44 1012.40 1012.32 1012.28 1012.16 1012.16 1012.16 1012.16 1012.20 1012.28 1012.44 1012.48 1012.56 1012.56 1012.64 1012.72 1012.76 1012.72 1012.68 1012.68 1012.72
1017.80 1017.60 1017.40 1017.16 1016.96 1016.76 1016.60 1016.44 1016.28 1016.16 1016.00 1015.88 1015.64 1015.44 1015.28 1015.00 1014.76 1014.56 1014.36 1014.16 1013.96 1013.76 1013.68 1013.64 1013.60 1013.52 1013.44 1013.36 1013.28 1013.28 1013.28 1013.28 1013.24 1013.24 1013.20 1013.16 1013.12 1013.08 1013.08 1013.00 1012.96 1012.84 1012.72 1012.64 1012.60 1012.52 1012.44 1012.44 1012.44 1012.40 1012.32 1012.28 1012.16 1012.16 1012.16 1012.12 1012.16 1012.28 1012.36 1012.44 1012.48 1012.56 1012.60 1012.76 1012.72 1012.72 1012.72 1012.72 1012.72
1017.76 1017.56 1017.32 1017.16 1016.92 1016.76 1016.56 1016.40 1016.24 1016.12 1016.00 1015.88 1015.68 1015.48 1015.28 1015.08 1014.84 1014.60 1014.44 1014.20 1014.00 1013.80 1013.64 1013.60 1013.52 1013.44 1013.40 1013.28 1013.24 1013.20 1013.16 1013.16 1013.16 1013.16 1013.16 1013.12 1013.04 1013.00 1012.96 1012.88 1012.84 1012.72 1012.64 1012.56 1012.52 1012.44 1012.44 1012.44 1012.44 1012.44 1012.32 1012.28 1012.16 1012.16 1012.16 1012.08 1012.16 1012.28 1012.36 1012.44 1012.44 1012.52 1012.60 1012.72 1012.72 1012.72 1012.72 1012.72 1012.76
1017.72 1017.52 1017.28 1017.12 1016.92 1016.72 1016.56 1016.36 1016.20 1016.04 1015.92 1015.80 1015.64 1015.48 1015.28 1015.12 1014.92 1014.68 1014.44 1014.28 1014.04 1013.88 1013.68 1013.52 1013.44 1013.40 1013.32 1013.24 1013.16 1013.12 1013.12 1013.08 1013.04 1013.04 1013.04 1013.00 1012.96 1012.92 1012.88 1012.80 1012.72 1012.68 1012.60 1012.52 1012.44 1012.40 1012.40 1012.40 1012.44 1012.40 1012.28 1012.24 1012.16 1012.16 1012.08 1012.00 1012.12 1012.28 1012.40 1012.44 1012.44 1012.52 1012.60 1012.68 1012.72 1012.72 1012.72 1012.72 1012.76
1017.72 1017.48 1017.28 1017.08 1016.88 1016.72 1016.52 1016.32 1016.16 1016.00 1015.84 1015.72 1015.60 1015.48 1015.32 1015.16 1015.00 1014.76 1014.56 1014.28 1014.12 1013.92 1013.72 1013.48 1013.32 1013.28 1013.20 1013.16 1013.08 1013.00 1013.00 1013.00 1012.96 1012.96 1012.96 1012.88 1012.88 1012.88 1012.80 1012.72 1012.64 1012.60 1012.56 1012.44 1012.36 1012.32 1012.32 1012.32 1012.32 1012.28 1012.24 1012.20 1012.16 1012.12 1012.04 1012.00 1012.08 1012.24 1012.36 1012.40 1012.44 1012.52 1012.60 1012.68 1012.72 1012.72 1012.72 1012.72 1012.80
1017.68 1017.44 1017.28 1017.08 1016.88 1016.68 1016.48 1016.28 1016.12 1015.92 1015.72 1015.60 1015.52 1015.44 1015.28 1015.16 1015.00 1014.80 1014.56 1014.32 1014.12 1013.88 1013.68 1013.44 1013.28 1013.16 1013.08 1013.04 1013.00 1012.92 1012.88 1012.88 1012.88 1012.88 1012.84 1012.80 1012.80 1012.76 1012.72 1012.68 1012.56 1012.52 1012.44 1012.44 1012.32 1012.28 1012.28 1012.28 1012.24 1012.20 1012.16 1012.16 1012.12 1012.08 1012.00 1012.00 1012.00 1012.16 1012.32 1012.36 1012.44 1012.52 1012.60 1012.64 1012.68 1012.72 1012.72 1012.76 1012.88
1017.64 1017.44 1017.28 1017.04 1016.84 1016.64 1016.44 1016.28 1016.04 1015.88 1015.68 1015.52 1015.40 1015.28 1015.24 1015.12 1014.96 1014.76 1014.56 1014.32 1014.12 1013.88 1013.64 1013.44 1013.24 1013.08 1013.00 1012.92 1012.88 1012.84 1012.80 1012.80 1012.80 1012.76 1012.72 1012.72 1012.72 1012.68 1012.64 1012.60 1012.56 1012.48 1012.44 1012.36 1012.32 1012.28 1012.24 1012.20 1012.16 1012.16 1012.08 1012.08 1012.04 1012.00 1011.96 1011.96 1012.00 1012.16 1012.28 1012.32 1012.40 1012.52 1012.60 1012.60 1012.64 1012.72 1012.72 1012.80 1012.88
1017.60 1017.44 1017.24 1017.00 1016.84 1016.60 1016.40 1016.20 1016.00 1015.84 1015.64 1015.44 1015.32 1015.24 1015.16 1015.04 1014.92 1014.76 1014.56 1014.32 1014.12 1013.88 1013.64 1013.44 1013.20 1013.04 1012.92 1012.84 1012.76 1012.72 1012.72 1012.72 1012.72 1012.72 1012.68 1012.64 1012.60 1012.60 1012.56 1012.52 1012.48 1012.44 1012.36 1012.28 1012.24 1012.20 1012.16 1012.12 1012.08 1012.04 1012.04 1012.00 1012.00 1011.96 1011.88 1011.96 1012.04 1012.16 1012.20 1012.28 1012.36 1012.48 1012.56 1012.60 1012.64 1012.72 1012.72 1012.80 1012.88
1017.56 1017.32 1017.16 1016.96 1016.76 1016.56 1016.32 1016.16 1016.00 1015.80 1015.60 1015.44 1015.24 1015.16 1015.08 1014.96 1014.88 1014.72 1014.52 1014.28 1014.08 1013.88 1013.64 1013.40 1013.16 1013.00 1012.88 1012.72 1012.68 1012.64 1012.60 1012.60 1012.60 1012.60 1012.56 1012.56 1012.52 1012.56 1012.52 1012.48 1012.44 1012.36 1012.28 1012.20 1012.16 1012.08 1012.04 1012.00 1012.00 1012.00 1012.00 1012.00 1012.00 1011.88 1011.88 1011.96 1012.04 1012.16 1012.20 1012.24 1012.36 1012.48 1012.56 1012.60 1012.64 1012.72 1012.76 1012.84 1012.88
1017.52 1017.28 1017.08 1016.88 1016.68 1016.48 1016.28 1016.12 1015.96 1015.76 1015.60 1015.40 1015.20 1015.08 1014.96 1014.88 1014.76 1014.64 1014.48 1014.28 1014.04 1013.84 1013.60 1013.36 1013.16 1012.96 1012.80 1012.68 1012.56 1012.52 1012.52 1012.52 1012.48 1012.48 1012.48 1012.44 1012.44 1012.44 1012.44 1012.44 1012.40 1012.32 1012.24 1012.16 1012.08 1011.96 1011.88 1011.88 1011.88 1011.96 1012.00 1012.00 1011.92 1011.80 1011.80 1011.92 1012.00 1012.08 1012.16 1012.28 1012.40 1012.48 1012.56 1012.60 1012.64 1012.72 1012.80 1012.88 1012.88
1017.44 1017.24 1017.00 1016.80 1016.60 1016.44 1016.28 1016.12 1015.92 1015.72 1015.60 1015.40 1015.20 1015.00 1014.88 1014.76 1014.64 1014.52 1014.40 1014.20 1014.00 1013.80 1013.60 1013.32 1013.12 1012.88 1012.72 1012.56 1012.48 1012.44 1012.44 1012.44 1012.40 1012.36 1012.36 1012.36 1012.32 1012.36 1012.36 1012.36 1012.32 1012.28 1012.16 1012.08 1012.00 1011.88 1011.76 1011.72 1011.80 1011.88 1011.92 1011.92 1011.84 1011.76 1011.76 1011.88 1012.00 1012.08 1012.16 1012.28 1012.40 1012.44 1012.56 1012.60 1012.68 1012.72 1012.80 1012.88 1012.88
1017.40 1017.20 1017.00 1016.76 1016.56 1016.40 1016.28 1016.12 1015.92 1015.76 1015.60 1015.40 1015.16 1015.00 1014.80 1014.64 1014.56 1014.44 1014.32 1014.16 1013.96 1013.76 1013.52 1013.28 1013.08 1012.88 1012.64 1012.48 1012.44 1012.36 1012.32 1012.28 1012.28 1012.28 1012.24 1012.24 1012.24 1012.28 1012.28 1012.28 1012.28 1012.16 1012.08 1011.96 1011.84 1011.72 1011.64 1011.64 1011.72 1011.76 1011.88 1011.84 1011.80 1011.72 1011.72 1011.84 1011.92 1012.00 1012.08 1012.20 1012.36 1012.48 1012.52 1012.56 1012.68 1012.76 1012.84 1012.88 1012.88
1017.36 1017.16 1016.96 1016.76 1016.56 1016.40 1016.24 1016.12 1015.96 1015.80 1015.60 1015.36 1015.16 1014.96 1014.76 1014.56 1014.44 1014.36 1014.28 1014.08 1013.92 1013.72 1013.56 1013.28 1013.04 1012.80 1012.56 1012.44 1012.36 1012.28 1012.28 1012.24 1012.20 1012.16 1012.16 1012.16 1012.16 1012.16 1012.16 1012.16 1012.16 1012.08 1012.00 1011.88 1011.72 1011.60 1011.56 1011.52 1011.60 1011.68 1011.76 1011.76 1011.72 1011.72 1011.72 1011.76 1011.84 1011.92 1012.00 1012.12 1012.28 1012.44 1012.52 1012.56 1012.68 1012.80 1012.88 1012.88 1012.88
1017.28 1017.12 1016.92 1016.72 1016.56 1016.40 1016.24 1016.08 1015.92 1015.72 1015.52 1015.32 1015.16 1014.92 1014.72 1014.56 1014.40 1014.28 1014.20 1014.04 1013.88 1013.68 1013.48 1013.24 1013.00 1012.76 1012.56 1012.40 1012.28 1012.20 1012.16 1012.16 1012.12 1012.12 1012.08 1012.04 1012.04 1012.04 1012.04 1012.08 1012.08 1012.04 1011.96 1011.80 1011.68 1011.60 1011.48 1011.44 1011.44 1011.56 1011.64 1011.68 1011.68 1011.68 1011.68 1011.72 1011.76 1011.84 1011.92 1012.04 1012.24 1012.40 1012.48 1012.56 1012.68 1012.80 1012.88 1012.88 1012.88
1017.24 1017.04 1016.88 1016.72 1016.56 1016.40 1016.24 1016.04 1015.88 1015.68 1015.48 1015.28 1015.12 1014.88 1014.72 1014.48 1014.28 1014.20 1014.12 1014.00 1013.84 1013.64 1013.44 1013.20 1012.96 1012.72 1012.52 1012.32 1012.24 1012.16 1012.04 1012.00 1012.00 1012.00 1012.00 1011.96 1011.88 1011.88 1011.88 1011.96 1012.00 1011.96 1011.88 1011.72 1011.60 1011.52 1011.44 1011.40 1011.40 1011.44 1011.52 1011.60 1011.60 1011.60 1011.60 1011.72 1011.76 1011.84 1011.88 1012.00 1012.20 1012.36 1012.44 1012.56 1012.64 1012.72 1012.88 1012.88 1012.92
1017.16 1017.00 1016.88 1016.72 1016.56 1016.36 1016.16 1016.00 1015.84 1015.64 1015.44 1015.28 1015.04 1014.84 1014.64 1014.44 1014.24 1014.12 1014.00 1013.88 1013.76 1013.64 1013.44 1013.24 1013.00 1012.72 1012.52 1012.32 1012.20 1012.08 1012.00 1011.96 1011.92 1011.92 1011.88 1011.88 1011.80 1011.80 1011.80 1011.80 1011.88 1011.84 1011.76 1011.68 1011.60 1011.48 1011.40 1011.36 1011.36 1011.36 1011.44 1011.48 1011.56 1011.60 1011.60 1011.68 1011.72 1011.80 1011.88 1012.00 1012.16 1012.32 1012.44 1012.56 1012.64 1012.72 1012.84 1012.88 1012.92
1017.08 1017.00 1016.88 1016.76 1016.56 1016.36 1016.16 1016.00 1015.80 1015.60 1015.44 1015.20 1015.00 1014.80 1014.56 1014.36 1014.16 1014.04 1013.88 1013.80 1013.72 1013.60 1013.44 1013.24 1013.00 1012.80 1012.56 1012.32 1012.16 1012.00 1011.92 1011.88 1011.84 1011.84 1011.84 1011.80 1011.72 1011.72 1011.72 1011.72 1011.72 1011.72 1011.68 1011.60 1011.52 1011.44 1011.36 1011.32 1011.28 1011.28 1011.32 1011.36 1011.44 1011.56 1011.60 1011.64 1011.72 1011.76 1011.88 1012.00 1012.16 1012.32 1012.44 1012.56 1012.64 1012.72 1012.76 1012.84 1012.88
1017.12 1017.00 1016.88 1016.72 1016.56 1016.32 1016.12 1015.92 1015.72 1015.56 1015.36 1015.16 1015.00 1014.76 1014.52 1014.32 1014.16 1013.96 1013.84 1013.72 1013.60 1013.48 1013.36 1013.20 1013.00 1012.80 1012.56 1012.32 1012.16 1011.96 1011.84 1011.76 1011.72 1011.68 1011.68 1011.68 1011.60 1011.60 1011.60 1011.60 1011.60 1011.60 1011.60 1011.52 1011.44 1011.36 1011.28 1011.28 1011.28 1011.24 1011.20 1011.24 1011.32 1011.44 1011.60 1011.64 1011.72 1011.76 1011.88 1012.00 1012.16 1012.32 1012.44 1012.56 1012.56 1012.64 1012.72 1012.76 1012.88
1017.16 1017.00 1016.88 1016.72 1016.52 1016.28 1016.08 1015.88 1015.68 1015.48 1015.28 1015.12 1014.92 1014.72 1014.44 1014.28 1014.04 1013.88 1013.72 1013.60 1013.52 1013.36 1013.24 1013.08 1012.92 1012.72 1012.48 1012.28 1012.04 1011.88 1011.76 1011.72 1011.60 1011.56 1011.52 1011.52 1011.52 1011.56 1011.52 1011.44 1011.44 1011.48 1011.48 1011.40 1011.32 1011.28 1011.20 1011.16 1011.16 1011.16 1011.16 1011.16 1011.24 1011.36 1011.48 1011.60 1011.72 1011.76 1011.84 1012.00 1012.16 1012.32 1012.44 1012.48 1012.56 1012.60 1012.68 1012.72 1012.80
1017.16 1017.00 1016.84 1016.64 1016.44 1016.24 1016.04 1015.88 1015.64 1015.44 1015.24 1015.04 1014.88 1014.64 1014.40 1014.20 1013.96 1013.80 1013.64 1013.52 1013.40 1013.28 1013.16 1013.00 1012.84 1012.64 1012.44 1012.24 1012.00 1011.84 1011.72 1011.60 1011.48 1011.44 1011.36 1011.36 1011.40 1011.40 1011.40 1011.36 1011.36 1011.36 1011.36 1011.28 1011.24 1011.16 1011.12 1011.04 1011.04 1011.04 1011.04 1011.04 1011.16 1011.28 1011.44 1011.56 1011.64 1011.72 1011.84 1012.00 1012.16 1012.28 1012.40 1012.48 1012.56 1012.60 1012.64 1012.68 1012.76
1017.12 1016.96 1016.72 1016.56 1016.36 1016.16 1016.00 1015.76 1015.60 1015.36 1015.16 1014.96 1014.72 1014.56 1014.32 1014.12 1013.88 1013.72 1013.56 1013.40 1013.28 1013.16 1013.04 1012.92 1012.76 1012.56 1012.40 1012.20 1012.00 1011.76 1011.60 1011.44 1011.36 1011.28 1011.28 1011.28 1011.28 1011.28 1011.28 1011.28 1011.28 1011.28 1011.24 1011.16 1011.12 1011.00 1011.00 1010.96 1010.96 1010.96 1010.96 1010.92 1011.12 1011.28 1011.40 1011.44 1011.60 1011.72 1011.84 1012.00 1012.16 1012.28 1012.32 1012.44 1012.52 1012.56 1012.60 1012.64 1012.72
1017.04 1016.88 1016.64 1016.44 1016.28 1016.12 1015.88 1015.68 1015.48 1015.28 1015.08 1014.88 1014.64 1014.44 1014.24 1014.04 1013.88 1013.64 1013.44 1013.28 1013.16 1013.00 1012.92 1012.80 1012.64 1012.48 1012.28 1012.12 1011.88 1011.72 1011.48 1011.32 1011.28 1011.16 1011.16 1011.16 1011.16 1011.16 1011.16 1011.16 1011.16 1011.16 1011.16 1011.04 1011.00 1010.92 1010.88 1010.88 1010.88 1010.84 1010.84 1010.88 1011.08 1011.24 1011.32 1011.40 1011.56 1011.72 1011.84 1012.00 1012.16 1012.28 1012.32 1012.40 1012.44 1012.52 1012.56 1012.60 1012.68
1017.00 1016.80 1016.60 1016.40 1016.20 1016.00 1015.84 1015.60 1015.40 1015.16 1015.00 1014.76 1014.56 1014.36 1014.16 1014.00 1013.76 1013.60 1013.36 1013.16 1013.00 1012.88 1012.76 1012.60 1012.48 1012.36 1012.16 1012.00 1011.80 1011.60 1011.40 1011.24 1011.16 1011.08 1011.00 1011.00 1011.00 1011.00 1011.00 1011.00 1011.00 1011.04 1011.00 1010.96 1010.88 1010.80 1010.72 1010.72 1010.68 1010.68 1010.72 1010.84 1011.04 1011.24 1011.32 1011.40 1011.52 1011.64 1011.80 1011.96 1012.16 1012.24 1012.28 1012.36 1012.44 1012.48 1012.56 1012.56 1012.64
1016.92 1016.76 1016.56 1016.36 1016.12 1015.92 1015.72 1015.56 1015.32 1015.08 1014.88 1014.68 1014.48 1014.28 1014.08 1013.88 1013.68 1013.44 1013.24 1013.08 1012.88 1012.72 1012.60 1012.44 1012.32 1012.20 1012.04 1011.88 1011.72 1011.48 1011.28 1011.16 1011.08 1011.00 1010.92 1010.84 1010.84 1010.88 1010.88 1010.88 1010.88 1010.92 1010.92 1010.88 1010.80 1010.72 1010.60 1010.56 1010.56 1010.52 1010.56 1010.76 1011.00 1011.20 1011.28 1011.40 1011.44 1011.60 1011.80 1011.96 1012.16 1012.20 1012.24 1012.28 1012.36 1012.44 1012.44 1012.48 1012.56
1016.88 1016.72 1016.56 1016.36 1016.08 1015.88 1015.64 1015.44 1015.28 1015.00 1014.80 1014.56 1014.40 1014.20 1014.00 1013.80 1013.60 1013.36 1013.16 1012.96 1012.80 1012.60 1012.44 1012.28 1012.16 1012.04 1011.92 1011.76 1011.60 1011.40 1011.16 1011.00 1010.96 1010.88 1010.80 1010.72 1010.68 1010.72 1010.72 1010.72 1010.76 1010.80 1010.80 1010.76 1010.72 1010.64 1010.56 1010.44 1010.44 1010.36 1010.44 1010.68 1010.92 1011.16 1011.24 1011.32 1011.44 1011.60 1011.80 1011.96 1012.12 1012.20 1012.24 1012.28 1012.32 1012.40 1012.44 1012.44 1012.48
1016.80 1016.68 1016.52 1016.28 1016.04 1015.84 1015.60 1015.40 1015.20 1015.00 1014.76 1014.56 1014.28 1014.08 1013.88 1013.72 1013.48 1013.24 1013.00 1012.84 1012.68 1012.48 1012.32 1012.16 1012.04 1011.92 1011.80 1011.64 1011.44 1011.28 1011.04 1010.88 1010.80 1010.72 1010.64 1010.56 1010.56 1010.56 1010.56 1010.60 1010.64 1010.68 1010.68 1010.64 1010.60 1010.56 1010.48 1010.36 1010.28 1010.28 1010.36 1010.64 1010.88 1011.04 1011.16 1011.28 1011.44 1011.60 1011.80 1011.92 1012.08 1012.16 1012.28 1012.28 1012.32 1012.36 1012.36 1012.40 1012.44
1016.72 1016.60 1016.44 1016.24 1016.00 1015.76 1015.56 1015.32 1015.16 1014.96 1014.76 1014.56 1014.28 1014.00 1013.76 1013.60 1013.32 1013.08 1012.88 1012.72 1012.56 1012.40 1012.20 1012.04 1011.88 1011.80 1011.68 1011.52 1011.32 1011.16 1010.92 1010.72 1010.64 1010.56 1010.52 1010.44 1010.44 1010.40 1010.44 1010.44 1010.48 1010.56 1010.56 1010.52 1010.52 1010.48 1010.44 1010.32 1010.24 1010.16 1010.28 1010.64 1010.84 1011.00 1011.08 1011.20 1011.36 1011.60 1011.76 1011.92 1012.04 1012.16 1012.24 1012.32 1012.32 1012.32 1012.32 1012.40 1012.44
1016.64 1016.52 1016.32 1016.12 1015.92 1015.72 1015.44 1015.24 1015.04 1014.88 1014.68 1014.44 1014.16 1013.92 1013.68 1013.40 1013.16 1012.96 1012.76 1012.56 1012.44 1012.28 1012.12 1011.92 1011.76 1011.64 1011.52 1011.36 1011.24 1011.04 1010.80 1010.60 1010.48 1010.44 1010.36 1010.32 1010.28 1010.28 1010.28 1010.28 1010.36 1010.44 1010.44 1010.44 1010.44 1010.40 1010.36 1010.28 1010.16 1010.12 1010.24 1010.56 1010.76 1010.88 1011.00 1011.16 1011.32 1011.56 1011.72 1011.88 1012.00 1012.12 1012.20 1012.28 1012.28 1012.32 1012.32 1012.40 1012.44
Thickness
5446 5449 5453 5456 5460 5463 5467 5469 5473 5476 5478 5481 5484 5486 5489 5492 5494 5497 5500 5503 5505 5508 5511 5513 5515 5517 5520 5522 5525 5528 5530 5532 5533 5536 5537 5539 5539 5540 5542 5543 5545 5547 5548 5550 5551 5553 5556 5557 5559 5560 5562 5564 5565 5567 5569 5570 5572 5573 5574 5575 5575 5577 5578 5580 5580 5581 5582 5584 5585
5442 5445 5448 5452 5456 5459 5462 5465 5469 5472 5475 5478 5480 5482 5485 5488 5490 5494 5497 5499 5502 5504 5507 5510 5512 5514 5516 5519 5521 5524 5527 5528 5530 5532 5534 5535 5537 5538 5539 5541 5543 5544 5546 5548 5550 5552 5553 5555 5557 5559 5560 5562 5564 5566 5567 5569 5570 5571 5572 5573 5574 5575 5576 5577 5578 5579 5581 5582 5583
5436 5440 5444 5447 5450 5454 5458 5461 5464 5467 5471 5473 5476 5479 5481 5484 5486 5490 5492 5495 5498 5501 5504 5506 5509 5511 5513 5515 5518 5520 5523 5525 5527 5529 5530 5532 5534 5536 5537 5539 5540 5542 5544 5545 5547 5550 5551 5553 5555 5557 5558 5560 5562 5563 5565 5566 5567 5568 5569 5571 5572 5573 5574 5575 5576 5577 5579 5580 5582
5432 5435 5439 5443 5446 5449 5453 5457 5460 5464 5467 5470 5472 5475 5477 5480 5483 5486 5489 5492 5494 5498 5500 5502 5505 5508 5510 5512 5515 5517 5519 5522 5524 5526 5528 5529 5531 5534 5535 5536 5537 5539 5542 5544 5545 5548 5550 5552 5553 5555 5556 5558 5560 5561 5562 5564 5565 5566 5567 5568 5569 5571 5571 5572 5574 5575 5577 5579 5580
5428 5431 5434 5437 5441 5445 5448 5452 5455 5459 5463 5465 5469 5471 5474 5477 5479 5482 5486 5488 5492 5494 5497 5500 5502 5505 5508 5510 5512 5514 5516 5519 5521 5523 5525 5527 5528 5530 5533 5534 5535 5537 5539 5541 5543 5546 5548 5549 5552 5553 5555 5556 5558 5559 5560 5561 5563 5564 5565 5566 5567 5568 5569 5570 5572 5574 5576 5577 5578
5423 5426 5429 5433 5437 5440 5444 5448 5451 5454 5458 5462 5465 5468 5471 5473 5476 5479 5482 5485 5488 5491 5494 5497 5500 5503 5505 5507 5509 5511 5514 5516 5518 5520 5522 5525 5526 5527 5530 5531 5533 5534 5537 5539 5542 5544 5546 5548 5550 5552 5553 5554 5556 5557 5558 5560 5561 5562 5562 5564 5565 5566 5567 5569 5570 5572 5574 5576 5577
5418 5422 5425 5428 5432 5435 5439 5443 5447 5450 5454 5458 5460 5464 5467 5470 5473 5475 5478 5482 5485 5488 5491 5494 5497 5500 5502 5504 5506 5509 5512 5514 5515 5518 5519 5522 5524 5526 5527 5529 5530 5532 5535 5537 5539 5542 5544 5546 5548 5550 5551 5553 5554 5555 5557 5558 5559 5559 5561 5562 5563 5564 5565 5567 5568 5570 5572 5574 5576
5414 5418 5421 5424 5428 5431 5435 5438 5443 5446 5450 5453 5457 5460 5463 5467 5470 5473 5476 5479 5482 5485 5488 5491 5494 5497 5499 5502 5504 5507 5509 5511 5513 5515 5517 5519 5520 5522 5523 5526 5528 5530 5532 5535 5537 5540 5542 5544 5546 5548 5549 5551 5552 5554 5555 5556 5557 5558 5559 5561 5562 5563 5564 5565 5567 5568 5570 5572 5574
5410 5413 5417 5420 5424 5427 5431 5434 5438 5442 5445 5449 5452 5457 5460 5464 5467 5470 5473 5476 5479 5481 5485 5488 5491 5494 5497 5499 5502 5504 5507 5509 5511 5513 5514 5516 5517 5519 5520 5523 5525 5527 5530 5533 5536 5538 5540 5542 5544 5545 5547 5549 5550 5552 5553 5554 5555 5556 5558 5559 5560 5561 5562 5563 5565 5567 5568 5570 5572
5406 5409 5413 5417 5419 5423 5427 5430 5434 5437 5441 5445 5448 5453 5456 5460 5463 5467 5470 5473 5475 5478 5482 5485 5488 5491 5493 5496 5499 5501 5504 5506 5508 5509 5510 5512 5513 5515 5518 5520 5522 5525 5527 5530 5533 5536 5538 5540 5541 5543 5544 5546 5548 5550 5551 5552 5554 5555 5556 5557 5558 5560 5561 5562 5563 5565 5567 5569 5570
5401 5405 5409 5412 5416 5419 5422 5426 5430 5433 5437 5441 5444 5448 5452 5455 5459 5463 5466 5469 5472 5475 5478 5481 5485 5487 5490 5493 5495 5498 5500 5503 5505 5506 5508 5509 5511 5513 5515 5517 5519 5522 5525 5528 5531 5533 5536 5538 5539 5540 5543 5544 5546 5548 5550 5551 5551 5553 5554 5555 5557 5558 5559 5560 5561 5563 5565 5567 5568
5397 5401 5405 5408 5412 5415 5419 5422 5425 5429 5432 5436 5440 5443 5447 5451 5455 5459 5462 5466 5469 5472 5475 5478 5481 5483 5486 5489 5491 5494 5496 5499 5501 5503 5505 5507 5509 5511 5513 5514 5516 5519 5522 5525 5528 5531 5533 5535 5537 5538 5540 5542 5544 5546 5548 5549 5550 5551 5552 5553 5555 5557 5557 5558 5559 5561 5563 5566 5567
5392 5396 5400 5404 5409 5411 5415 5418 5421 5425 5428 5432 5435 5439 5443 5447 5451 5455 5459 5462 5466 5469 5472 5475 5477 5480 5482 5485 5488 5491 5493 5495 5497 5499 5501 5503 5506 5508 5509 5512 5514 5517 5520 5523 5525 5528 5531 5533 5534 5536 5538 5540 5542 5544 5546 5547 5549 5550 5550 5551 5553 5554 5556 5556 5557 5560 5562 5563 5564
5388 5392 5396 5400 5404 5408 5411 5414 5418 5421 5424 5427 5431 5435 5439 5443 5447 5451 5454 5458 5462 5466 5469 5471 5474 5477 5479 5482 5485 5487 5490 5492 5494 5496 5498 5501 5503 5505 5507 5509 5512 5514 5517 5520 5523 5525 5528 5530 5532 5533 5536 5538 5540 5542 5544 5546 5547 5548 5549 5549 5551 5553 5554 5554 5556 5558 5560 5561 5562
5383 5387 5391 5395 5399 5403 5407 5410 5414 5417 5420 5423 5427 5430 5434 5439 5443 5447 5450 5454 5458 5462 5465 5468 5471 5473 5476 5479 5482 5484 5486 5489 5492 5493 5496 5498 5501 5503 5504 5507 5510 5512 5515 5518 5521 5523 5525 5527 5529 5531 5534 5535 5539 5541 5542 5544 5545 5546 5547 5548 5549 5551 5552 5553 5554 5556 5558 5559 5561
5378 5383 5387 5391 5395 5399 5404 5407 5410 5413 5416 5420 5423 5426 5430 5434 5438 5442 5446 5450 5454 5458 5461 5464 5467 5470 5473 5477 5479 5482 5484 5486 5489 5491 5494 5495 5498 5500 5503 5505 5508 5510 5513 5516 5518 5521 5523 5525 5527 5528 5531 5533 5536 5538 5540 5542 5543 5544 5545 5546 5547 5549 5550 5551 5553 5554 5556 5558 5559
5373 5378 5382 5386 5391 5395 5399 5403 5406 5410 5413 5416 5419 5422 5426 5430 5434 5437 5442 5446 5450 5454 5458 5462 5464 5468 5470 5473 5476 5479 5482 5484 5486 5489 5491 5493 5495 5498 5501 5503 5506 5508 5511 5513 5516 5519 5521 5522 5524 5526 5529 5531 5533 5536 5538 5540 5541 5542 5543 5544 5545 5547 5548 5549 5550 5552 5554 5556 5557
5368 5373 5377 5381 5386 5390 5394 5399 5403 5407 5410 5413 5416 5419 5422 5425 5430 5433 5437 5441 5445 5449 5454 5458 5461 5465 5468 5471 5473 5476 5479 5481 5484 5486 5488 5491 5493 5496 5498 5501 5503 5506 5508 5511 5514 5516 5518 5520 5522 5525 5527 5529 5531 5533 5536 5538 5539 5540 5541 5542 5543 5544 5546 5547 5548 5550 5552 5553 5554
5364 5368 5372 5377 5381 5386 5390 5395 5399 5403 5407 5410 5412 5415 5419 5422 5425 5429 5433 5437 5441 5445 5450 5454 5458 5462 5465 5468 5471 5473 5476 5479 5481 5483 5486 5488 5491 5493 5495 5498 5501 5503 5506 5508 5511 5514 5516 5518 5520 5523 5525 5527 5529 5532 5534 5537 5538 5538 5539 5540 5542 5542 5544 5545 5547 5548 5550 5551 5552
5359 5363 5367 5372 5377 5381 5386 5391 5395 5399 5403 5406 5409 5412 5415 5418 5421 5425 5429 5434 5437 5442 5446 5451 5455 5459 5462 5466 5468 5471 5474 5476 5478 5481 5483 5486 5488 5490 5493 5495 5498 5501 5503 5506 5508 5511 5514 5517 5519 5521 5523 5526 5527 5530 5533 5534 5535 5536 5537 5539 5539 5540 5541 5543 5545 5546 5548 5548 5550
5353 5357 5362 5367 5372 5376 5381 5386 5391 5395 5399 5403 5406 5409 5412 5415 5418 5422 5425 5430 5433 5438 5442 5447 5451 5455 5459 5462 5466 5469 5471 5473 5476 5478 5480 5483 5486 5488 5490 5493 5495 5498 5501 5504 5506 5509 5512 5514 5517 5519 5521 5523 5525 5528 5530 5532 5533 5534 5536 5537 5538 5538 5540 5541 5542 5544 5546 5547 5548
5349 5353 5358 5362 5367 5371 5376 5381 5386 5391 5395 5399 5402 5405 5409 5412 5414 5418 5422 5426 5430 5435 5439 5444 5448 5452 5456 5460 5463 5465 5468 5471 5473 5476 5478 5481 5484 5486 5488 5490 5493 5496 5498 5502 5504 5507 5510 5513 5515 5516 5519 5521 5523 5526 5529 5530 5531 5532 5533 5535 5536 5536 5538 5539 5541 5542 5543 5544 5546
5344 5348 5353 5357 5362 5367 5372 5376 5381 5386 5391 5394 5399 5403 5405 5408 5412 5415 5419 5422 5427 5431 5435 5439 5444 5449 5453 5457 5460 5463 5465 5469 5471 5473 5476 5478 5481 5483 5485 5488 5490 5493 5496 5499 5502 5505 5509 5511 5513 5514 5516 5519 5522 5524 5526 5527 5529 5530 5532 5533 5533 5535 5536 5537 5539 5540 5541 5542 5544
5339 5344 5348 5352 5358 5362 5367 5372 5376 5381 5386 5390 5395 5399 5403 5405 5409 5412 5416 5419 5423 5427 5432 5436 5441 5445 5450 5454 5457 5460 5463 5465 5468 5471 5473 5476 5478 5481 5483 5485 5488 5491 5493 5497 5500 5504 5507 5509 5511 5513 5514 5516 5520 5522 5524 5525 5526 5528 5529 5531 5531 5533 5534 5536 5537 5538 5539 5540 5542
5334 5339 5343 5348 5352 5357 5361 5367 5371 5376 5381 5386 5390 5395 5399 5403 5406 5409 5413 5416 5420 5424 5428 5433 5437 5442 5446 5451 5454 5457 5460 5463 5466 5468 5471 5473 5476 5478 5481 5482 5485 5488 5491 5494 5498 5502 5505 5507 5509 5511 5512 5514 5517 5520 5522 5523 5524 5526 5528 5529 5530 5531 5532 5534 5535 5536 5537 5538 5540
5329 5333 5338 5343 5347 5352 5356 5361 5366 5371 5376 5381 5386 5391 5395 5399 5403 5406 5409 5413 5417 5421 5425 5429 5434 5439 5443 5447 5451 5454 5457 5460 5463 5466 5468 5471 5474 5476 5478 5480 5483 5486 5489 5492 5496 5500 5503 5506 5508 5509 5510 5513 5515 5518 5520 5522 5523 5525 5527 5527 5528 5529 5530 5532 5533 5534 5535 5536 5538
5325 5329 5333 5338 5342 5347 5351 5356 5361 5366 5371 5377 5382 5386 5391 5396 5400 5403 5407 5410 5414 5418 5422 5426 5430 5435 5440 5444 5448 5451 5454 5457 5460 5463 5466 5468 5471 5474 5476 5479 5480 5483 5487 5490 5493 5497 5501 5503 5506 5507 5509 5511 5513 5516 5518 5520 5522 5523 5525 5526 5526 5527 5529 5530 5531 5532 5532 5534 5535
5320 5324 5328 5332 5337 5341 5346 5351 5356 5362 5367 5372 5377 5382 5387 5392 5396 5400 5404 5407 5410 5414 5419 5423 5427 5432 5437 5441 5445 5448 5452 5454 5458 5460 5463 5466 5469 5471 5474 5476 5478 5481 5484 5488 5492 5495 5498 5501 5503 5505 5507 5509 5512 5514 5516 5518 5520 5521 5523 5524 5525 5525 5526 5527 5529 5530 5530 5532 5533
5316 5320 5323 5327 5332 5336 5341 5347 5351 5357 5362 5368 5373 5378 5383 5388 5392 5397 5401 5405 5408 5411 5415 5419 5424 5429 5434 5437 5441 5445 5448 5452 5455 5457 5461 5463 5466 5469 5472 5474 5476 5479 5482 5485 5488 5492 5495 5498 5501 5503 5505 5507 5509 5512 5514 5515 5517 5519 5521 5522 5522 5523 5524 5525 5526 5527 5529 5530 5531
5313 5316 5319 5323 5327 5331 5336 5341 5347 5352 5357 5363 5368 5373 5379 5384 5388 5393 5398 5401 5405 5408 5412 5416 5420 5425 5429 5434 5438 5442 5446 5449 5452 5455 5458 5461 5463 5466 5469 5472 5474 5477 5479 5483 5486 5490 5492 5495 5499 5501 5503 5505 5507 5509 5512 5513 5515 5517 5518 5519 5520 5521 5522 5523 5524 5526 5527 5528 5530
5308 5311 5314 5318 5322 5327 5332 5337 5342 5347 5353 5359 5364 5369 5375 5380 5385 5390 5394 5398 5402 5406 5409 5413 5417 5421 5426 5430 5434 5439 5443 5446 5450 5453 5455 5458 5461 5464 5467 5469 5472 5475 5477 5481 5484 5487 5490 5493 5496 5498 5501 5504 5505 5507 5509 5511 5513 5515 5516 5517 5518 5518 5519 5521 5523 5524 5526 5527 5528
5303 5306 5310 5314 5318 5322 5327 5332 5337 5343 5348 5354 5359 5365 5370 5376 5380 5385 5390 5395 5399 5403 5407 5410 5414 5418 5423 5427 5432 5436 5440 5443 5447 5450 5453 5456 5459 5461 5464 5467 5470 5472 5475 5478 5481 5484 5488 5491 5494 5496 5499 5502 5504 5505 5507 5509 5510 5512 5513 5514 5515 5517 5518 5519 5520 5522 5524 5525 5526
5299 5303 5306 5310 5314 5318 5323 5328 5333 5338 5343 5349 5355 5360 5366 5372 5377 5382 5387 5392 5396 5400 5405 5408 5412 5416 5420 5424 5429 5433 5437 5441 5444 5447 5450 5454 5456 5459 5462 5464 5467 5470 5473 5476 5479 5482 5486 5488 5491 5494 5497 5500 5502 5504 5505 5506 5507 5509 5511 5512 5513 5514 5516 5517 5519 5520 5522 5524 5524
5296 5299 5303 5306 5311 5314 5319 5323 5328 5333 5339 5344 5351 5356 5362 5368 5373 5378 5383 5388 5393 5398 5401 5405 5409 5413 5417 5421 5426 5430 5434 5438 5442 5445 5448 5451 5454 5457 5460 5462 5465 5468 5471 5474 5477 5480 5483 5486 5489 5492 5495 5498 5500 5501 5502 5504 5505 5507 5509 5510 5511 5512 5514 5515 5517 5518 5520 5521 5522
5293 5296 5300 5303 5307 5310 5315 5319 5324 5329 5335 5340 5346 5352 5358 5363 5369 5374 5379 5385 5390 5395 5399 5403 5407 5410 5414 5418 5423 5428 5432 5435 5440 5442 5446 5448 5452 5455 5457 5460 5463 5466 5468 5471 5475 5478 5481 5484 5487 5490 5493 5496 5497 5498 5500 5502 5503 5505 5506 5508 5508 5510 5511 5514 5515 5516 5518 5519 5521
5290 5293 5297 5300 5304 5307 5311 5315 5320 5325 5330 5336 5342 5348 5354 5360 5365 5370 5375 5381 5387 5392 5397 5401 5405 5408 5412 5416 5420 5425 5429 5433 5436 5440 5443 5446 5449 5452 5455 5458 5461 5463 5466 5469 5472 5476 5479 5483 5485 5489 5491 5493 5494 5496 5497 5499 5501 5502 5505 5505 5507 5508 5510 5511 5513 5514 5516 5517 5519
5287 5289 5293 5297 5300 5304 5308 5312 5317 5322 5327 5332 5338 5344 5349 5355 5361 5367 5372 5377 5383 5388 5394 5399 5403 5406 5410 5414 5418 5422 5426 5430 5434 5438 5441 5445 5448 5450 5453 5456 5459 5461 5464 5467 5470 5474 5477 5480 5484 5487 5490 5490 5492 5493 5495 5497 5499 5500 5502 5503 5504 5506 5508 5509 5511 5512 5514 5516 5517
5285 5287 5290 5293 5297 5301 5305 5309 5313 5318 5323 5329 5334 5340 5345 5352 5358 5363 5369 5374 5379 5385 5391 5396 5400 5404 5407 5411 5416 5420 5424 5428 5432 5435 5439 5442 5445 5448 5451 5454 5456 5458 5461 5464 5468 5471 5474 5478 5482 5485 5488 5489 5489 5491 5492 5494 5496 5498 5500 5501 5502 5503 5505 5507 5509 5510 5512 5514 5515
5282 5284 5287 5290 5294 5298 5301 5305 5309 5314 5319 5324 5330 5336 5342 5347 5354 5360 5366 5370 5376 5381 5388 5393 5398 5402 5405 5409 5413 5418 5422 5426 5429 5433 5436 5440 5443 5446 5449 5452 5454 5456 5459 5462 5465 5468 5472 5476 5479 5483 5485 5486 5487 5488 5490 5492 5494 5496 5497 5498 5500 5501 5503 5504 5507 5508 5510 5512 5513
5281 5282 5285 5288 5292 5295 5299 5302 5307 5311 5315 5321 5326 5332 5338 5344 5351 5357 5363 5368 5373 5378 5384 5390 5395 5399 5403 5408 5411 5416 5420 5424 5428 5431 5434 5438 5441 5444 5447 5450 5452 5455 5457 5460 5463 5466 5469 5473 5477 5480 5482 5483 5484 5485 5487 5490 5491 5493 5495 5496 5497 5499 5501 5502 5504 5506 5508 5510 5511
5278 5281 5283 5286 5289 5293 5296 5300 5304 5308 5312 5317 5322 5328 5335 5341 5347 5353 5359 5365 5370 5375 5380 5387 5392 5398 5402 5405 5409 5413 5418 5422 5426 5429 5432 5436 5439 5443 5445 5448 5450 5452 5455 5458 5461 5463 5467 5470 5474 5479 5481 5480 5481 5484 5486 5487 5489 5491 5492 5494 5495 5497 5498 5500 5501 5503 5505 5507 5508